Regional Weather Roundup
Issued by NWS

Home | Current Version | Previous Version | Graphics & Text | Print | Product List | Glossary On
Versions: 1 2 3 4 5 6 7 8 9 10 11 12 13 14 15 16 17 18 19 20 21 22 23 24 25 26 27 28 29 30 31 32 33 34 35 36 37 38 39 40 41 42 43 44 45 46 47 48 49 50
421
ASUS45 KSLC 242110
RWRUT

UTAH REGIONAL WEATHER ROUNDUP
NATIONAL WEATHER SERVICE SALT LAKE CITY UT
300 PM MDT SUN JUL 24 2016

UTZ001>011-023>025-242200-

NORTHERN UTAH

CITY           SKY/WX    TMP DP  RH WIND       PRES   REMARKS
BRIGHAM CITY     N/A     90  17   7 NW3       30.09F
HILL AFB       SUNNY     89  32  13 VRB3      30.13F
LOGAN          SUNNY     90  28  11 CALM      30.10F
OGDEN          SUNNY     90  31  12 W6        30.10F
PROVO AIRPORT  MOSUNNY   88  43  20 VRB6      30.09F
SALT LAKE CITY SUNNY     94  29  10 N9        30.07F
VERNAL         SUNNY     97  32  10 S9G20     30.08F HX  91
WENDOVER       SUNNY     88  30  12 SE9       30.10F
HEBER CITY     SUNNY     95  28   9 S6G21     30.14S

$$

UTZ012>022-026-027-242200-

SOUTHERN/CENTRAL UTAH

CITY           SKY/WX    TMP DP  RH WIND       PRES   REMARKS
BLANDING       MOSUNNY   94  38  14 W14G20    30.22F HX  90
BRYCE CANYON   MOSUNNY   83  27  13 N13G25    30.32S
CEDAR CITY     TSTM      76  50  40 N17G31    30.14S
DELTA          SUNNY     93  28  10 W7        30.09F
MILFORD        SUNNY     96  27   8 E3        30.08F HX  90
MOAB/CYNLANDS  SUNNY    100  29   8 W12       30.00F HX  93
PRICE          SUNNY     94  30  10 S9        30.14F
ST GEORGE      CLEAR    106  52  16 NW8G18    29.92F HX 103
KANAB          MOSUNNY   97  45  16 S17       30.11F HX  93

$$

REGIONAL REPORTS     COLORADO/ARIZONA

CITY           SKY/WX    TMP DP  RH WIND       PRES   REMARKS
CRAIG, CO      CLOUDY    89  29  11 NW10G23   30.18F
GRAND JUNCTION MOSUNNY   98  43  15 VRB7      30.04F HX  94
RIFLE          SUNNY     98  33  10 W17G25    30.09F HX  92
MONTROSE       SUNNY     94  36  13 N9        30.13F
CORTEZ         SUNNY     91  45  20 S8        30.14F
PAGE, AZ       MOSUNNY   99  38  12 VRB6      30.01F HX  94
GRAND CANYON   MOSUNNY   93  45  19 SW21      30.26F
KINGMAN        SUNNY     98  50  19 SW24G33   30.03F HX  95
FLAGSTAFF      MOSUNNY   83  49  30 VRB5      30.31F

$$

REGIONAL REPORTS    NEVADA/IDAHO/WYOMING

CITY           SKY/WX    TMP DP  RH WIND       PRES   REMARKS
LAS VEGAS, NV  MOSUNNY  109  29   6 SW14G23   29.81F HX 101
ELY            SUNNY     93  24   8 SW18G24   30.17F
ELKO           SUNNY     90  15   6 VRB5      30.11F
POCATELLO, ID  SUNNY     86  31  13 SW7       30.14F
BURLEY         SUNNY     82  40  22 VRB3      30.10F
EVANSTON, WY   SUNNY     86  20   9 W12G22    30.29S
ROCK SPRINGS   SUNNY     87  15   7 SW16G24   30.24F
KEMMERER         N/A     82  19   9 W14G23    30.30F

$$




USA.gov is the U.S. government's official web portal to all federal, state and local government web resources and services.